When you browse on this site, cookies collect data to enhance your experience and personalize the content and advertising you see.
Visit our Privacy Policy to learn more. By continuing to use the site, you agree to this use of cookies and data.
  • Em Portugal
  • Lista de países
  • Para 7 dias
  • Temperatura da água
  • Mapa do tempo
  • Widgets de tempo
  • user-avatar
    Iniciar Sessão

    Previsão horária em Manresa

    Hoje, 12 Novembro, Terça-feira

    Tempo Temperatura Precipitação Vento Pressão Humidade
    00:00 +7°C° 0 mm 3 m/s 731 mmHg 57%
    01:00 +6°C° 0 mm 2 m/s 731 mmHg 60%
    02:00 +6°C° 0 mm 2 m/s 730 mmHg 63%
    03:00 +6°C° 0 mm 2 m/s 730 mmHg 66%
    04:00 +5°C° 0 mm 2 m/s 730 mmHg 66%
    05:00 +5°C° 0 mm 2 m/s 730 mmHg 66%
    06:00 +4°C° 0 mm 3 m/s 730 mmHg 64%
    07:00 +7°C° 0 mm 3 m/s 730 mmHg 59%
    08:00 +8°C° 0 mm 2 m/s 730 mmHg 53%
    09:00 +9°C° 0 mm 2 m/s 729 mmHg 48%
    10:00 +12°C° 0 mm 2 m/s 729 mmHg 44%
    11:00 +13°C° 0 mm 2 m/s 729 mmHg 39%
    12:00 +15°C° 0 mm 2 m/s 729 mmHg 35%
    13:00 +14°C° 0 mm 3 m/s 729 mmHg 36%
    14:00 +14°C° 0 mm 3 m/s 728 mmHg 38%
    15:00 +14°C° 0 mm 3 m/s 727 mmHg 40%
    16:00 +12°C° 0 mm 3 m/s 727 mmHg 47%
    17:00 +11°C° 0 mm 3 m/s 727 mmHg 54%
    18:00 +9°C° 0 mm 2 m/s 727 mmHg 62%
    19:00 +8°C° 0 mm 2 m/s 727 mmHg 65%
    20:00 +9°C° 0 mm 1 m/s 727 mmHg 68%
    21:00 +8°C° 0 mm 1 m/s 727 mmHg 72%
    22:00 +8°C° 0 mm 1 m/s 727 mmHg 73%
    23:00 +7°C° 0 mm 1 m/s 726 mmHg 74%

    Amanhã, 13 Novembro, Quarta-feira

    Tempo Temperatura Precipitação Vento Pressão Humidade
    00:00 +7°C° 0 mm 1 m/s 726 mmHg 76%
    01:00 +7°C° 0 mm 1 m/s 726 mmHg 74%
    02:00 +8°C° 0 mm 1 m/s 725 mmHg 73%
    03:00 +8°C° 0 mm 1 m/s 724 mmHg 72%
    04:00 +8°C° 0.4 mm 1 m/s 724 mmHg 75%
    05:00 +8°C° 0.4 mm 1 m/s 724 mmHg 78%
    06:00 +8°C° 0.4 mm 1 m/s 724 mmHg 80%
    07:00 +8°C° 0.4 mm 1 m/s 724 mmHg 78%
    08:00 +9°C° 0.4 mm 1 m/s 724 mmHg 75%
    09:00 +10°C° 0.4 mm 1 m/s 725 mmHg 73%
    10:00 +10°C° 0 mm 2 m/s 725 mmHg 68%
    11:00 +12°C° 0 mm 2 m/s 726 mmHg 62%
    12:00 +12°C° 0 mm 3 m/s 726 mmHg 57%
    13:00 +12°C° 0 mm 4 m/s 726 mmHg 59%
    14:00 +12°C° 0 mm 4 m/s 726 mmHg 62%
    15:00 +12°C° 0 mm 5 m/s 726 mmHg 64%
    16:00 +11°C° 0 mm 4 m/s 727 mmHg 69%
    17:00 +10°C° 0 mm 2 m/s 727 mmHg 75%
    18:00 +10°C° 0 mm 1 m/s 728 mmHg 80%
    19:00 +9°C° 0 mm 1 m/s 727 mmHg 80%
    20:00 +9°C° 0 mm 1 m/s 727 mmHg 79%
    21:00 +8°C° 0 mm 1 m/s 727 mmHg 78%
    22:00 +8°C° 0 mm 1 m/s 727 mmHg 78%
    23:00 +8°C° 0 mm 1 m/s 726 mmHg 77%

    Depois de amanhã, 14 Novembro, Quinta-feira

    Tempo Temperatura Precipitação Vento Pressão Humidade
    00:00 +8°C° 0 mm 1 m/s 726 mmHg 77%
    01:00 +8°C° 0 mm 1 m/s 725 mmHg 76%
    02:00 +8°C° 0 mm 1 m/s 725 mmHg 75%
    03:00 +9°C° 0 mm 1 m/s 724 mmHg 73%
    04:00 +9°C° 0 mm 1 m/s 724 mmHg 74%
    05:00 +9°C° 0 mm 1 m/s 723 mmHg 74%
    06:00 +9°C° 0 mm 1 m/s 723 mmHg 75%
    07:00 +8°C° 0 mm 2 m/s 723 mmHg 73%
    08:00 +9°C° 0 mm 3 m/s 723 mmHg 72%
    09:00 +9°C° 0 mm 3 m/s 723 mmHg 70%
    10:00 +10°C° 0.2 mm 4 m/s 722 mmHg 70%
    11:00 +10°C° 0.2 mm 4 m/s 722 mmHg 70%
    12:00 +10°C° 0.2 mm 4 m/s 722 mmHg 70%
    13:00 +10°C° 0 mm 4 m/s 721 mmHg 67%
    14:00 +8°C° 0 mm 4 m/s 721 mmHg 64%
    15:00 +8°C° 0 mm 4 m/s 721 mmHg 62%
    16:00 +7°C° 0 mm 4 m/s 721 mmHg 64%
    17:00 +6°C° 0 mm 4 m/s 721 mmHg 66%
    18:00 +5°C° 0 mm 3 m/s 721 mmHg 68%
    19:00 +5°C° 0 mm 3 m/s 722 mmHg 68%
    20:00 +5°C° 0 mm 2 m/s 722 mmHg 69%
    21:00 +6°C° 0 mm 1 m/s 722 mmHg 70%
    22:00 +5°C° 0 mm 1 m/s 722 mmHg 71%
    23:00 +5°C° 0 mm 1 m/s 722 mmHg 73%

    15 Novembro, Sexta-feira

    Tempo Temperatura Precipitação Vento Pressão Humidade
    00:00 +5°C° 0 mm 1 m/s 722 mmHg 74%
    01:00 +5°C° 0 mm 1 m/s 722 mmHg 75%
    02:00 +5°C° 0 mm 1 m/s 723 mmHg 75%
    03:00 +5°C° 0 mm 1 m/s 723 mmHg 76%
    04:00 +5°C° 0 mm 1 m/s 723 mmHg 77%
    05:00 +4°C° 0 mm 1 m/s 723 mmHg 79%
    06:00 +4°C° 0 mm 1 m/s 723 mmHg 81%
    07:00 +5°C° 0 mm 1 m/s 724 mmHg 76%
    08:00 +6°C° 0 mm 1 m/s 724 mmHg 71%
    09:00 +7°C° 0 mm 1 m/s 725 mmHg 66%
    10:00 +8°C° 0 mm 1 m/s 725 mmHg 62%
    11:00 +9°C° 0 mm 1 m/s 725 mmHg 59%
    12:00 +9°C° 0 mm 2 m/s 725 mmHg 55%
    13:00 +9°C° 0 mm 2 m/s 725 mmHg 55%
    14:00 +9°C° 0 mm 2 m/s 725 mmHg 55%
    15:00 +9°C° 0 mm 3 m/s 725 mmHg 55%
    16:00 +8°C° 0 mm 2 m/s 725 mmHg 60%
    17:00 +7°C° 0 mm 2 m/s 725 mmHg 65%
    18:00 +5°C° 0 mm 2 m/s 725 mmHg 70%
    19:00 +5°C° 0 mm 2 m/s 726 mmHg 72%
    20:00 +4°C° 0 mm 3 m/s 726 mmHg 74%
    21:00 +4°C° 0 mm 3 m/s 727 mmHg 76%
    22:00 +3°C° 0 mm 3 m/s 727 mmHg 79%
    23:00 +3°C° 0 mm 3 m/s 727 mmHg 81%

    16 Novembro, Sábado

    Tempo Temperatura Precipitação Vento Pressão Humidade
    00:00 +3°C° 0 mm 2 m/s 727 mmHg 83%
    01:00 +3°C° 0 mm 2 m/s 728 mmHg 84%
    02:00 +3°C° 0 mm 2 m/s 728 mmHg 84%
    03:00 +4°C° 0 mm 1 m/s 728 mmHg 85%
    04:00 +3°C° 0 mm 1 m/s 728 mmHg 84%
    05:00 +3°C° 0 mm 1 m/s 729 mmHg 83%
    06:00 +3°C° 0 mm 1 m/s 729 mmHg 82%
    07:00 +4°C° 0 mm 1 m/s 730 mmHg 74%
    08:00 +6°C° 0 mm 1 m/s 731 mmHg 67%
    09:00 +7°C° 0 mm 1 m/s 731 mmHg 60%
    10:00 +8°C° 0 mm 1 m/s 731 mmHg 57%
    11:00 +10°C° 0 mm 1 m/s 731 mmHg 55%
    12:00 +11°C° 0 mm 1 m/s 731 mmHg 52%
    13:00 +11°C° 0 mm 1 m/s 731 mmHg 51%
    14:00 +11°C° 0 mm 1 m/s 731 mmHg 50%
    15:00 +11°C° 0 mm 1 m/s 731 mmHg 50%
    16:00 +9°C° 0 mm 1 m/s 731 mmHg 58%
    17:00 +8°C° 0 mm 1 m/s 731 mmHg 66%
    18:00 +6°C° 0 mm 1 m/s 732 mmHg 74%
    19:00 +5°C° 0 mm 2 m/s 732 mmHg 72%
    20:00 +4°C° 0 mm 2 m/s 732 mmHg 71%
    21:00 +4°C° 0 mm 2 m/s 732 mmHg 69%
    22:00 +3°C° 0 mm 2 m/s 731 mmHg 68%
    23:00 +3°C° 0 mm 2 m/s 731 mmHg 66%

    17 Novembro, Domingo

    Tempo Temperatura Precipitação Vento Pressão Humidade
    00:00 +2°C° 0 mm 2 m/s 730 mmHg 65%
    01:00 +2°C° 0 mm 2 m/s 729 mmHg 62%
    02:00 +2°C° 0 mm 2 m/s 729 mmHg 59%
    03:00 +1°C° 0 mm 2 m/s 728 mmHg 56%
    04:00 +1°C° 0 mm 2 m/s 728 mmHg 55%
    05:00 +1°C° 0 mm 2 m/s 727 mmHg 53%
    06:00 +1°C° 0 mm 2 m/s 727 mmHg 51%
    07:00 +3°C° 0 mm 2 m/s 727 mmHg 46%
    08:00 +4°C° 0 mm 2 m/s 727 mmHg 41%
    09:00 +6°C° 0 mm 2 m/s 727 mmHg 37%
    10:00 +7°C° 0 mm 2 m/s 727 mmHg 35%
    11:00 +9°C° 0 mm 2 m/s 727 mmHg 33%
    12:00 +10°C° 0 mm 3 m/s 726 mmHg 31%
    13:00 +10°C° 0 mm 3 m/s 726 mmHg 34%
    14:00 +10°C° 0 mm 2 m/s 726 mmHg 36%
    15:00 +10°C° 0 mm 2 m/s 725 mmHg 38%
    16:00 +9°C° 0 mm 2 m/s 725 mmHg 46%
    17:00 +7°C° 0 mm 2 m/s 725 mmHg 53%
    18:00 +7°C° 0 mm 1 m/s 726 mmHg 60%
    19:00 +7°C° 0 mm 1 m/s 726 mmHg 59%
    20:00 +7°C° 0 mm 1 m/s 726 mmHg 59%
    21:00 +7°C° 0 mm 1 m/s 726 mmHg 58%
    22:00 +7°C° 0.3 mm 1 m/s 726 mmHg 61%
    23:00 +7°C° 0.3 mm 1 m/s 726 mmHg 64%
    Mostrar mais